Location: Unspecified
(38.9820°N, 94.4650°W)
Time: 09:07:45
(UTC-06:00)

Okean 3 - Visible Passes

Search period start: 13 February 2016 00:00
Search period end: 23 February 2016 00:00
Orbit: 578 x 605 km, 82.5° (Epoch: 13 February)

Date Brightness Start Highest point End Pass type
(mag) Time Alt. Az. Time Alt. Az. Time Alt. Az.
13 Feb 6.5 06:25:01 10° SE 06:28:03 20° E 06:31:04 10° NE visible
13 Feb 7.0 19:46:34 10° WNW 19:47:52 11° W 19:49:10 10° WSW visible
14 Feb 5.8 06:32:56 10° SSE 06:36:35 30° E 06:40:14 10° NNE visible
14 Feb 3.4 18:15:33 10° N 18:19:48 81° E 18:24:02 10° S visible
15 Feb 4.8 06:41:10 10° SSE 06:45:10 46° E 06:49:11 10° NNE visible
15 Feb 4.0 18:24:15 10° NNW 18:28:26 63° W 18:32:37 10° S visible
16 Feb 5.1 18:33:05 10° NNW 18:37:03 40° W 18:41:00 10° SSW visible
17 Feb 6.0 18:42:06 10° NNW 18:45:36 26° W 18:49:08 10° SW visible
18 Feb 6.9 05:32:21 10° ESE 05:34:17 13° E 05:36:13 10° ENE visible
18 Feb 6.7 18:51:22 10° NW 18:54:08 17° W 18:56:54 10° SW visible
19 Feb 6.4 05:39:44 10° SE 05:42:47 20° E 05:45:50 10° NE visible
19 Feb 7.2 19:01:24 10° WNW 19:02:37 11° W 19:03:49 10° W visible
20 Feb 5.5 05:47:39 10° SSE 05:51:19 30° E 05:54:59 10° NNE visible
21 Feb 4.6 05:55:53 10° SSE 05:59:53 47° E 06:03:54 10° NNE visible
22 Feb 3.6 06:04:20 10° S 06:08:29 77° E 06:12:40 10° N visible
